Iliamna, AK

2:59 PM AKDT on April 20, 2018 (GMT -0800)
Iliamna

Weather History for PAIL - March, 2013

Change the Weather History Date:

Sunday, March 31, 2013

  Actual Average Record
Temperature  
Mean Temperature 37 °F -  
Max Temperature 42 °F 33 °F 50 °F (2016)
Min Temperature 30 °F 18 °F -16 °F (1944)
Degree Days  
Heating Degree Days 28    
Moisture  
Dew Point 32 °F    
Average Humidity 89    
Maximum Humidity 100    
Minimum Humidity 62    
Precipitation  
Precipitation 0.00 in - - ()
Sea Level Pressure  
Sea Level Pressure 30.23 in    
Wind  
Wind Speed 4 mph (North)    
Max Wind Speed 9 mph    
Max Gust Speed -    
Visibility 10 miles    
Events      
Averages and records for this station are not official NWS values.
T = Trace of Precipitation, MM = Missing Value Source: NWS Daily Summary

Daily Weather History Graph

Daily Weather History Graph

Search for Another Location

Airport or City:

Astronomy

Mar. 31, 2013 Rise Set
Actual Time 7:46 AM AKDT 9:01 PM AKDT
Civil Twilight 7:04 AM AKDT 9:44 PM AKDT
Nautical Twilight 6:11 AM AKDT 10:37 PM AKDT
Astronomical Twilight 5:10 AM AKDT 11:39 PM AKDT
Moon 2:25 AM AKDT (3/31) 9:35 AM AKDT (3/31)
Length of Visible Light 14h 40m
Length of Day
13h 15m
Waning Gibbous, 76% of the Moon is Illuminated
Mar 31
Waning Gibbous
Apr 2
Last Quarter
Apr 10
New
Apr 18
First Quarter
Apr 25
Full

Hourly Weather History & Observations

Time (AKDT) Temp. Windchill Dew Point Humidity Pressure Visibility Wind Dir Wind Speed Gust Speed Precip Events Conditions
12:41 AM 33.8 °F 30.8 °F 33.8 °F 100% 30.21 in 10.0 mi NW 3.5 mph - N/A   Overcast
12:53 AM 33.1 °F 30.0 °F 33.1 °F 100% 30.22 in 10.0 mi NNW 3.5 mph - N/A   Overcast
1:53 AM 32.0 °F - 32.0 °F 100% 30.23 in 10.0 mi Calm Calm - N/A   Overcast
2:53 AM 33.1 °F 28.7 °F 33.1 °F 100% 30.23 in 10.0 mi NNE 4.6 mph - N/A   Overcast
3:26 AM 33.8 °F 28.6 °F 33.8 °F 100% 30.22 in 10.0 mi North 5.8 mph - N/A   Overcast
3:43 AM 32.0 °F 26.4 °F 32.0 °F 100% 30.23 in 9.0 mi NE 5.8 mph - N/A   Overcast
3:53 AM 32.0 °F 27.5 °F 32.0 °F 100% 30.24 in 10.0 mi NNE 4.6 mph - N/A   Overcast
4:36 AM 32.0 °F 28.7 °F 32.0 °F 100% 30.23 in 10.0 mi NE 3.5 mph - N/A   Overcast
4:53 AM 32.0 °F 28.7 °F 32.0 °F 100% 30.24 in 10.0 mi NNE 3.5 mph - N/A   Overcast
5:53 AM 32.0 °F 27.5 °F 32.0 °F 100% 30.24 in 10.0 mi NNE 4.6 mph - N/A   Overcast
6:53 AM 32.0 °F 28.7 °F 32.0 °F 100% 30.24 in 10.0 mi NE 3.5 mph - N/A   Overcast
7:53 AM 33.1 °F 27.7 °F 30.9 °F 92% 30.25 in 10.0 mi NNE 5.8 mph - N/A   Overcast
8:53 AM 33.1 °F 28.7 °F 30.9 °F 92% 30.25 in 10.0 mi North 4.6 mph - N/A   Overcast
9:53 AM 34.0 °F 31.0 °F 32.0 °F 92% 30.26 in 10.0 mi NNE 3.5 mph - N/A   Overcast
10:15 AM 33.8 °F 29.6 °F 32.0 °F 93% 30.25 in 10.0 mi NE 4.6 mph - N/A   Overcast
10:26 AM 33.8 °F 29.6 °F 32.0 °F 93% 30.25 in 10.0 mi NE 4.6 mph - N/A   Overcast
10:39 AM 33.8 °F 29.6 °F 33.8 °F 100% 30.25 in 10.0 mi ENE 4.6 mph - N/A   Overcast
10:53 AM 35.1 °F 32.2 °F 33.1 °F 92% 30.26 in 10.0 mi NE 3.5 mph - N/A   Overcast
11:08 AM 35.6 °F - 32.0 °F 87% 30.25 in 10.0 mi Calm Calm - N/A   Mostly Cloudy
11:53 AM 37.0 °F - 33.1 °F 86% 30.27 in 9.0 mi Calm Calm - 0.00 in   Overcast
12:53 PM 37.9 °F - 32.0 °F 79% 30.27 in 10.0 mi Calm Calm - N/A   Overcast
1:53 PM 37.9 °F - 32.0 °F 79% 30.26 in 10.0 mi Calm Calm - N/A   Overcast
2:53 PM 37.9 °F 35.5 °F 32.0 °F 79% 30.25 in 10.0 mi South 3.5 mph - N/A   Overcast
3:53 PM 39.0 °F 36.8 °F 33.1 °F 79% 30.24 in 10.0 mi South 3.5 mph - N/A   Mostly Cloudy
4:53 PM 41.0 °F - 28.9 °F 62% 30.22 in 10.0 mi Calm Calm - N/A   Mostly Cloudy
5:53 PM 39.0 °F 33.4 °F 32.0 °F 76% 30.21 in 10.0 mi South 8.1 mph - N/A   Mostly Cloudy
6:53 PM 37.9 °F 35.5 °F 30.9 °F 76% 30.21 in 10.0 mi SW 3.5 mph - N/A   Mostly Cloudy
7:53 PM 37.0 °F 32.4 °F 30.9 °F 79% 30.19 in 10.0 mi SSW 5.8 mph - N/A   Mostly Cloudy
8:53 PM 35.1 °F 31.0 °F 30.0 °F 82% 30.19 in 10.0 mi WSW 4.6 mph - N/A   Mostly Cloudy
9:53 PM 32.0 °F 26.4 °F 30.0 °F 92% 30.19 in 10.0 mi West 5.8 mph - N/A   Clear
10:53 PM 32.0 °F 24.2 °F 26.1 °F 79% 30.18 in 10.0 mi West 9.2 mph - N/A   Partly Cloudy
11:53 PM 30.9 °F 25.2 °F 25.0 °F 79% 30.17 in 10.0 mi West 5.8 mph - N/A   Clear